Location: Kellogg
(38.0159°N, 90.0546°W)
Time: 20:05:12
(UTC+00:00)

Tiros 1 despin weight - Pass Details

Date: 22 September 2024
Orbit: 572 x 614 km, 48.2° (Epoch: 08 October)

Event Time Altitude Azimuth Distance (km) Brightness Sun altitude
Exits shadow 11:13:24 - 306° (NW) 2,700 ? -7.7°
Reaches altitude 10° 11:15:19 10° 312° (NW) 1,983 ? -7.4°
Maximum altitude 11:19:41 43° 24° (NNE) 867 ? -6.5°
Drops below altitude 10° 11:24:02 10° 97° (E) 1,979 ? -5.6°
Sets 11:26:26 0° 104° (ESE) 2,879 ? -5.2°
